Location: Newark
(49.2191°N, 12.6671°E)
Time: 10:32:45
(UTC+00:00)

Transit 2A - Pass Details

Date: 24 January 2020
Orbit: 599 x 959 km, 66.7° (Epoch: 25 February)

Event Time Altitude Azimuth Distance (km) Brightness Sun altitude
Exits shadow 03:48:47 45° 136° (SE) 974 6.7 -29.5°
Drops below altitude 10° 03:52:23 10° 142° (SE) 2,270 8.8 -28.9°
Sets 03:54:53 0° 143° (SE) 3,253 9.7 -28.5°
